GW3809 Weather Reports


Display with metric or nautical units.
time (UTC)temp
F
wind
direction
speed
MPH
gust
MPH
rain 1hr
in
rain 24hr
in
rain mn
in
humidity
%
barometer
mb
20260503052905 66 258 0.0 2.0 0.00 0.00 0.00 75 1023.3
20260503052403 66 249 2.0 2.0 0.00 0.00 0.00 75 1023.5
20260503051858 66 236 2.0 3.0 0.00 0.00 0.00 75 1023.5
20260503051354 66 285 1.0 2.0 0.00 0.00 0.00 75 1023.3
20260503050852 66 268 2.0 2.0 0.00 0.00 0.00 75 1023.4
20260503050348 66 239 0.0 2.0 0.00 0.00 0.00 75 1023.2
20260503045845 66 211 0.0 2.0 0.00 0.01 0.01 75 1023.3
20260503045343 66 271 2.0 3.0 0.00 0.01 0.01 74 1023.3
20260503044839 66 278 2.0 3.0 0.00 0.01 0.01 74 1023.3
20260503044337 66 292 0.0 2.0 0.00 0.01 0.01 74 1023.3
20260503043833 67 241 2.0 2.0 0.00 0.01 0.01 73 1023.2
20260503043330 67 253 2.0 2.0 0.00 0.01 0.01 72 1023.1
20260503042827 67 223 0.0 2.0 0.00 0.01 0.01 71 1023.0
20260503042324 67 254 2.0 2.0 0.00 0.01 0.01 69 1023.2
20260503041819 67 70 1.0 1.0 0.00 0.01 0.01 68 1022.9
20260503041317 68 20 0.0 2.0 0.00 0.01 0.01 69 1023.0
20260503040815 68 74 1.0 2.0 0.00 0.01 0.01 68 1022.9
20260503040312 68 147 0.0 2.0 0.00 0.01 0.01 68 1022.9
20260503035809 68 95 1.0 2.0 0.00 0.01 0.01 68 1023.0
20260503035306 68 139 1.0 2.0 0.00 0.01 0.01 67 1023.1
20260503034803 68 97 2.0 2.0 0.00 0.01 0.01 68 1022.9
20260503034300 67 201 0.0 1.0 0.00 0.01 0.01 69 1023.1
20260503033757 67 80 2.0 2.0 0.00 0.01 0.01 68 1022.9
20260503033255 67 62 1.0 2.0 0.00 0.01 0.01 68 1023.2
20260503032753 68 107 0.0 2.0 0.00 0.01 0.01 68 1023.1
20260503032252 68 108 1.0 2.0 0.00 0.01 0.01 68 1023.0
20260503031748 68 114 0.0 2.0 0.00 0.01 0.01 68 1022.7
20260503031246 68 102 2.0 3.0 0.00 0.01 0.01 68 1022.7
20260503030742 68 133 1.0 2.0 0.00 0.01 0.01 68 1022.6
20260503030239 68 105 2.0 3.0 0.00 0.01 0.01 67 1022.6
20260503025736 68 94 1.0 3.0 0.00 0.01 0.01 67 1022.4
20260503025233 68 130 2.0 2.0 0.00 0.01 0.01 67 1022.6
20260503024730 68 96 2.0 4.0 0.00 0.01 0.01 67 1022.4
20260503024227 68 96 1.0 3.0 0.00 0.01 0.01 67 1022.2
20260503023724 68 135 2.0 3.0 0.00 0.01 0.01 67 1022.1
20260503023220 68 96 3.0 4.0 0.00 0.01 0.01 67 1022.1
20260503022717 68 69 2.0 3.0 0.00 0.01 0.01 67 1021.9
20260503022216 68 110 2.0 4.0 0.00 0.01 0.01 67 1021.8
20260503021713 68 135 2.0 4.0 0.00 0.01 0.01 66 1021.9
20260503021209 68 67 0.0 4.0 0.00 0.01 0.01 66 1021.8
20260503020707 68 112 2.0 4.0 0.00 0.01 0.01 66 1021.7
20260503020204 68 113 3.0 4.0 0.00 0.01 0.01 65 1021.6
20260503015701 69 14 0.0 3.0 0.00 0.01 0.01 65 1021.7
20260503015158 69 78 4.0 6.0 0.00 0.01 0.01 64 1021.6
20260503014654 69 42 2.0 6.0 0.00 0.01 0.01 64 1021.6
20260503014152 69 17 0.0 5.0 0.00 0.01 0.01 63 1021.6
20260503013649 69 47 4.0 5.0 0.00 0.01 0.01 63 1021.5
20260503013147 69 84 4.0 6.0 0.00 0.01 0.01 63 1021.4
20260503012643 69 100 4.0 6.0 0.00 0.01 0.01 62 1021.3
20260503012140 70 39 4.0 6.0 0.00 0.01 0.01 62 1021.0
20260503011637 70 171 0.0 5.0 0.00 0.01 0.01 62 1021.3
20260503011134 70 102 7.0 8.0 0.00 0.01 0.01 61 1021.1
20260503010630 71 76 3.0 7.0 0.00 0.01 0.01 62 1021.1
20260503010128 71 30 6.0 8.0 0.00 0.01 0.01 62 1020.8
20260503005625 71 342 2.0 6.0 0.00 0.01 0.01 61 1020.8
20260503005122 71 82 3.0 5.0 0.00 0.01 0.01 60 1020.6
20260503004618 71 90 2.0 5.0 0.00 0.01 0.01 60 1020.8
20260503004117 71 90 3.0 10.0 0.00 0.01 0.01 60 1020.7
20260503003613 72 104 2.0 7.0 0.00 0.01 0.01 60 1020.7
20260503003110 72 49 5.0 5.0 0.00 0.01 0.01 58 1020.7
20260503002607 72 63 3.0 8.0 0.00 0.01 0.01 58 1020.8
20260503002104 73 28 2.0 8.0 0.00 0.01 0.01 58 1020.8
20260503001600 73 113 3.0 7.0 0.00 0.01 0.01 58 1020.6
20260503001057 73 70 4.0 9.0 0.00 0.01 0.01 58 1020.7
20260503000555 74 61 7.0 9.0 0.00 0.01 0.01 57 1020.4
20260503000052 74 338 3.0 6.0 0.00 0.01 0.01 55 1020.4
20260502235548 74 2 3.0 4.0 0.00 0.01 0.01 55 1020.4
20260502235046 74 45 4.0 7.0 0.00 0.01 0.01 56 1020.4
20260502234542 74 69 4.0 9.0 0.00 0.01 0.01 54 1020.2
20260502234040 73 61 3.0 10.0 0.00 0.01 0.01 55 1020.1
20260502233540 74 25 4.0 10.0 0.00 0.01 0.01 55 1020.4
20260502233037 74 22 2.0 7.0 0.00 0.01 0.01 58 1020.1
20260502232533 74 352 5.0 7.0 0.00 0.01 0.01 56 1020.1
20260502232031 75 61 5.0 8.0 0.00 0.01 0.01 57 1020.1
20260502231527 75 43 8.0 11.0 0.00 0.01 0.01 57 1019.9
20260502231025 74 41 4.0 6.0 0.00 0.01 0.01 58 1020.2
20260502230524 74 8 3.0 10.0 0.00 0.01 0.01 57 1020.1
20260502230022 74 54 3.0 6.0 0.00 0.01 0.01 57 1020.1
20260502225522 73 86 3.0 10.0 0.00 0.01 0.01 58 1020.0
20260502225020 74 356 7.0 11.0 0.00 0.01 0.01 58 1020.1
20260502224516 74 23 3.0 4.0 0.00 0.01 0.01 57 1020.1
20260502224013 74 63 4.0 11.0 0.00 0.01 0.01 59 1020.1
20260502223511 73 66 3.0 7.0 0.00 0.01 0.01 59 1019.9
20260502223009 73 18 4.0 7.0 0.00 0.01 0.01 60 1020.0
20260502222506 73 51 7.0 8.0 0.00 0.01 0.01 60 1020.1
20260502222002 73 3 4.0 7.0 0.00 0.01 0.01 60 1019.9
20260502221458 73 52 6.0 11.0 0.00 0.01 0.01 58 1020.1
20260502220955 74 76 2.0 7.0 0.00 0.01 0.01 59 1020.2
20260502220450 74 28 6.0 11.0 0.00 0.01 0.01 59 1020.1
20260502215948 74 50 6.0 6.0 0.00 0.01 0.01 59 1020.1
20260502215445 74 23 5.0 14.0 0.00 0.01 0.01 61 1020.2
20260502214942 74 34 4.0 9.0 0.00 0.01 0.01 57 1020.1
20260502214439 75 37 3.0 6.0 0.00 0.01 0.01 60 1020.4
20260502213936 74 58 6.0 9.0 0.00 0.01 0.01 59 1020.2
20260502213432 75 31 6.0 9.0 0.00 0.01 0.01 60 1020.3
20260502212931 73 51 3.0 6.0 0.00 0.01 0.01 62 1020.3
20260502212430 73 27 7.0 8.0 0.00 0.01 0.01 60 1020.4
20260502211927 74 31 5.0 11.0 0.00 0.01 0.01 60 1020.0
20260502211422 74 18 5.0 16.0 0.00 0.01 0.01 61 1020.4
20260502210920 75 35 8.0 8.0 0.00 0.01 0.01 60 1020.4
20260502210417 74 16 4.0 10.0 0.00 0.01 0.01 61 1020.6
20260502205914 73 358 3.0 10.0 0.00 0.01 0.01 63 1020.5
20260502205410 74 30 3.0 9.0 0.00 0.01 0.01 62 1020.6
20260502204907 74 5 2.0 10.0 0.00 0.01 0.01 62 1020.7
20260502204404 73 16 3.0 9.0 0.00 0.01 0.01 65 1020.7
20260502203902 73 28 6.0 11.0 0.00 0.01 0.01 63 1020.9
20260502203359 73 20 3.0 12.0 0.00 0.01 0.01 62 1020.9
20260502202854 73 334 7.0 9.0 0.00 0.01 0.01 63 1020.8
20260502202352 74 27 4.0 10.0 0.00 0.01 0.01 64 1020.8
20260502201850 73 28 3.0 10.0 0.00 0.01 0.01 65 1020.8
20260502201346 72 336 5.0 11.0 0.00 0.01 0.01 66 1020.9
20260502200842 72 346 8.0 8.0 0.00 0.01 0.01 65 1021.2
20260502200338 72 48 6.0 6.0 0.00 0.01 0.01 69 1021.2
20260502195836 71 7 7.0 11.0 0.00 0.01 0.01 67 1021.3
20260502195333 72 20 4.0 10.0 0.00 0.01 0.01 65 1021.3
20260502194829 70 350 3.0 8.0 0.00 0.01 0.01 71 1021.3
20260502194326 70 39 5.0 12.0 0.00 0.01 0.01 68 1021.3
20260502193822 70 339 3.0 8.0 0.00 0.01 0.01 68 1021.5
20260502193320 70 349 6.0 7.0 0.00 0.01 0.01 69 1021.2
20260502192815 70 345 4.0 11.0 0.00 0.01 0.01 68 1021.5
20260502192312 70 355 3.0 10.0 0.00 0.01 0.01 69 1021.4
20260502191810 70 65 5.0 9.0 0.00 0.01 0.01 68 1021.5
20260502191307 69 30 4.0 11.0 0.00 0.01 0.01 70 1021.6
20260502190804 69 354 8.0 12.0 0.00 0.01 0.01 70 1021.6
20260502190301 69 328 9.0 10.0 0.00 0.01 0.01 71 1021.7
20260502185756 69 355 7.0 10.0 0.00 0.01 0.01 70 1021.6
20260502185253 68 326 10.0 13.0 0.00 0.01 0.01 72 1021.6
20260502184749 69 31 6.0 10.0 0.00 0.01 0.01 70 1021.8
20260502184245 69 32 6.0 9.0 0.00 0.01 0.01 70 1021.6
20260502183743 69 8 3.0 9.0 0.00 0.01 0.01 71 1022.0
20260502183238 68 355 6.0 11.0 0.00 0.01 0.01 71 1021.9
20260502182733 68 13 6.0 13.0 0.00 0.01 0.01 72 1021.7
20260502182224 68 357 4.0 15.0 0.00 0.01 0.01 70 1021.8
20260502181720 69 2 4.0 7.0 0.00 0.01 0.01 71 1022.0
20260502181219 68 323 6.0 11.0 0.00 0.01 0.01 73 1021.8
20260502180716 67 30 4.0 11.0 0.00 0.01 0.01 73 1022.1
20260502180214 67 345 10.0 11.0 0.00 0.01 0.01 72 1022.3
20260502170132 65 351 5.0 12.0 0.00 0.01 0.01 76 1022.6
20260502164119 63 353 4.0 9.0 0.00 0.01 0.01 78 1022.6
20260502163615 63 13 7.0 11.0 0.00 0.01 0.01 78 1022.6
20260502163112 63 349 6.0 12.0 0.00 0.01 0.01 78 1022.4
20260502162608 63 18 8.0 11.0 0.00 0.01 0.01 79 1022.5
20260502162105 63 336 6.0 10.0 0.00 0.01 0.01 79 1022.7
20260502161602 63 23 6.0 11.0 0.00 0.01 0.01 80 1022.7
20260502161059 62 9 3.0 8.0 0.00 0.01 0.01 81 1022.6
20260502160558 62 336 5.0 7.0 0.00 0.01 0.01 81 1022.6
20260502152010 61 356 8.0 11.0 0.00 0.01 0.01 81 1022.3
20260502151507 61 332 9.0 10.0 0.00 0.01 0.01 81 1022.3
20260502151004 60 356 6.0 13.0 0.00 0.01 0.01 81 1022.1
20260502150501 60 303 9.0 10.0 0.00 0.01 0.01 81 1022.1
20260502130346 61 348 8.0 9.0 0.00 0.01 0.01 85 1020.4
20260502123329 61 18 2.0 8.0 0.00 0.01 0.01 86 1020.0
20260502122826 61 1 7.0 12.0 0.00 0.01 0.01 86 1019.8
20260502122321 60 357 5.0 9.0 0.00 0.01 0.01 86 1019.7
20260502121821 60 354 6.0 9.0 0.00 0.01 0.01 86 1019.4
20260502121318 60 30 4.0 12.0 0.00 0.01 0.01 85 1019.6
20260502120814 60 343 8.0 10.0 0.00 0.01 0.01 86 1019.5
20260502120311 60 327 6.0 14.0 0.00 0.01 0.01 85 1019.5
20260502115809 60 344 11.0 13.0 0.00 0.01 0.01 85 1019.4
20260502115306 60 0 6.0 10.0 0.00 0.01 0.01 86 1019.4
20260502114801 60 332 3.0 5.0 0.00 0.01 0.01 86 1019.1
20260502114258 61 355 6.0 9.0 0.00 0.01 0.01 86 1018.8
20260502113755 60 5 5.0 10.0 0.00 0.01 0.01 86 1019.0
20260502113253 60 2 5.0 12.0 0.00 0.01 0.01 85 1018.7
20260502112751 60 9 6.0 10.0 0.00 0.01 0.01 86 1018.5
20260502112249 60 358 7.0 10.0 0.00 0.01 0.01 86 1018.5
20260502111745 60 15 7.0 10.0 0.00 0.01 0.01 85 1018.8
20260502111243 61 8 6.0 10.0 0.00 0.01 0.01 85 1018.5
20260502110740 61 31 5.0 14.0 0.00 0.01 0.01 85 1018.4
20260502110238 61 351 6.0 13.0 0.00 0.01 0.01 86 1018.3
20260502105736 61 346 3.0 10.0 0.00 0.01 0.01 86 1018.1
20260502105232 61 0 9.0 13.0 0.00 0.01 0.01 85 1018.0
20260502104730 61 329 5.0 14.0 0.00 0.01 0.01 85 1017.8
20260502104227 61 350 9.0 12.0 0.00 0.01 0.01 86 1017.7
20260502103725 61 336 6.0 12.0 0.00 0.01 0.01 86 1017.9
20260502103222 61 4 4.0 15.0 0.00 0.01 0.01 86 1017.7
20260502102719 61 356 8.0 8.0 0.00 0.01 0.01 86 1017.7
20260502102215 61 0 2.0 8.0 0.00 0.01 0.01 86 1018.0
20260502101714 61 334 9.0 10.0 0.00 0.01 0.01 86 1017.9
20260502101212 61 75 9.0 13.0 0.00 0.01 0.01 86 1017.6
20260502100709 61 38 3.0 9.0 0.00 0.01 0.01 86 1017.7
20260502100208 61 27 9.0 12.0 0.00 0.01 0.01 86 1017.6
20260502091142 62 343 6.0 12.0 0.00 0.01 0.01 87 1017.4
20260502090639 62 343 6.0 18.0 0.00 0.01 0.01 87 1017.2
20260502090136 62 344 8.0 11.0 0.00 0.01 0.01 88 1017.0
20260502071533 63 350 14.0 18.0 0.00 0.00 0.00 85 1015.7
20260502071026 63 2 13.0 21.0 0.00 0.00 0.00 84 1015.6
20260502070524 64 349 15.0 16.0 0.00 0.00 0.00 84 1016.0
20260502070022 64 348 12.0 18.0 0.00 0.00 0.00 84 1016.2
20260502065520 64 354 11.0 17.0 0.00 0.00 0.00 84 1016.1
20260502065017 64 24 6.0 19.0 0.00 0.00 0.00 84 1016.0
20260502064516 64 5 8.0 14.0 0.00 0.00 0.00 84 1016.0
20260502064012 64 358 6.0 19.0 0.00 0.00 0.00 84 1016.3
20260502063510 64 359 16.0 17.0 0.00 0.00 0.00 84 1016.3
20260502063008 64 3 8.0 21.0 0.00 0.00 0.00 84 1016.3
20260502062504 64 356 12.0 15.0 0.00 0.00 0.00 84 1016.2
20260502062003 64 350 7.0 17.0 0.00 0.00 0.00 84 1016.2
20260502061501 64 1 7.0 17.0 0.00 0.00 0.00 84 1016.2
20260502060956 64 5 9.0 18.0 0.00 0.00 0.00 84 1016.1
20260502060452 64 354 9.0 16.0 0.00 0.00 0.00 84 1016.2
20260502055949 65 352 4.0 13.0 0.00 0.00 0.00 84 1016.2
20260502055447 65 343 5.0 16.0 0.00 0.00 0.00 83 1016.1
20260502054946 65 323 4.0 18.0 0.00 0.00 0.00 83 1016.1
20260502054444 65 348 9.0 12.0 0.00 0.00 0.00 83 1016.0
20260502053941 65 348 6.0 16.0 0.00 0.00 0.00 83 1016.2
20260502053438 65 333 13.0 18.0 0.00 0.00 0.00 83 1016.2